Tracking 22836 objects as of 18-Apr-2021
HD Live streaming from Space Station
objects crossing your sky now

DELTA 1 DEB

Track DELTA 1 DEB now!
10-day predictions


NORAD ID: 9979
Int'l Code: 1973-086GJ
Perigee: 1,427.5 km
Apogee: 2,415.1 km
Inclination: 101.9 °
Period: 125.2 minutes
Semi major axis: 8292 km
RCS: 0.0244 m2 (small)
Launch date: November 6, 1973
Source: United States (US)
Launch site: AIR FORCE WESTERN TEST RANGE (AFWTR)

Note: This is SATELLITE DEBRIS
aabbcc
Your satellite tracking list
Your tracking list is empty




NASA's NSSDC Master Catalog

Two Line Element Set (TLE):
1 09979U 73086GJ  21107.82780477  .00000058  00000-0  13265-2 0  9994
2 09979 101.9368 325.6852 0595517  68.5975 356.3182 11.49721657303026
Source of the keplerian elements: AFSPC